Location: Veytaux
(46.4185°N, 6.9320°E)
Time: 08:55:46
(UTC+00:00)

Genesis I - Pass Details

Date: 27 May 2022
Orbit: 463 x 544 km, 64.5° (Epoch: 01 July)

Event Time Altitude Azimuth Distance (km) Brightness Sun altitude
Rises 02:36:04 0° 322° (NW) 2,715 7.0 -10.3°
Reaches altitude 10° 02:38:18 10° 322° (NW) 1,814 6.1 -10.0°
Maximum altitude 02:42:23 84° 233° (SW) 546 3.2 -9.5°
Drops below altitude 10° 02:46:22 10° 147° (SSE) 1,770 5.8 -9.0°
Sets 02:48:31 0° 147° (SSE) 2,642 6.7 -8.7°
